Regional Weather Roundup
Issued by NWS Sterling, VA

Home | Current Version | Previous Version | Graphics & Text | Print | Product List | Glossary On
Versions: 1 2 3 4 5 6 7 8 9 10 11 12 13 14 15 16 17 18 19 20 21 22 23 24 25 26 27 28 29 30 31 32 33 34 35 36 37 38 39 40 41 42 43 44 45 46 47 48 49 50
000
ASUS41 KLWX 281310
RWRLWX

REGIONAL WEATHER ROUNDUP
NATIONAL WEATHER SERVICE BALTIMORE MD/WASHINGTON DC
900 AM EDT THU MAY 28 2015

Note: "FAIR" indicates few or no clouds below 12,000 feet
with no significant weather and/or obstructions to visibility.
 TC=TEMPERATURE CELSIUS

 * =Non NWS site. Station does not report precipitation (e.g. rain,
    snow, etc.), thunder, or fog.

DCZ001-MDZ009-015-VAZ040>042-051-053>054-281400-
WASHINGTON METRO

CITY           SKY/WX    TMP DP  RH WIND       PRES   REMARKS
WASHINGTON NAT CLOUDY    77  68  73 S6        30.20R
DULLES         PTSUNNY   73  68  84 S3        30.20R
ANDREWS AFB    MOSUNNY   76  68  78 W7        30.19R
FT BELVOIR     MOSUNNY   76  68  78 S3        30.20R
QUANTICO       PTSUNNY   73  67  81 S7        30.20S
LEESBURG*      SUNNY     75  70  83 SW5       30.21S
MANASSAS*      SUNNY     73  70  88 SW3       30.20R
GAITHERSBURG*  MOSUNNY   73  66  78 SW5       30.24R

$$

MDZ006>007-011-014-281400-
BALTIMORE METRO

CITY           SKY/WX    TMP DP  RH WIND       PRES   REMARKS
BWI AIRPORT    PTSUNNY   76  68  76 VRB6      30.18R
MD SCIENCE CTR   N/A     78  68  71 MISG      30.18S
MARTIN STATE   MOSUNNY   75  72  88 SW6       30.19R
ANNAPOLIS      PTSUNNY   75  67  76 SW6       30.18S
FORT MEADE*    MOSUNNY   73  68  83 W6        30.21S

$$

MDZ012-015-019>023-281400-
MARYLAND EASTERN SHORE

CITY           SKY/WX    TMP DP  RH WIND       PRES   REMARKS
OCEAN CITY     PTSUNNY   70  65  84 SW10G18   30.22R
SALISBURY      PTSUNNY   72  68  87 S9        30.21R
BAY BRIDGE AP*   N/A    N/A N/A N/A S7        30.19R
CAMBRIDGE*     PTSUNNY   75  70  83 S7        30.19S
EASTON*        PTSUNNY   77  72  83 SW7       30.23S

$$

MDZ017>025-281400-
SOUTHERN MARYLAND

CITY           SKY/WX    TMP DP  RH WIND       PRES   REMARKS
PATUXENT RIVER CLOUDY    74  68  81 SW7       30.20R
ST INIGOES     CLOUDY    74  69  85 SW8       30.19S
LEONARDTOWN*   CLOUDY    73  68  83 SW7       30.22R

$$

MDZ003>005-281400-
NORTH CENTRAL MARYLAND

CITY           SKY/WX    TMP DP  RH WIND       PRES   REMARKS
FREDERICK*     SUNNY     75  70  83 SW7       30.21R
HAGERSTOWN APT PTSUNNY   76  65  68 W7        30.20R
WESTMINSTER*   MOSUNNY   75  72  88 CALM      30.19S

$$

MDZ501>502-281400-
WESTERN MARYLAND

CITY           SKY/WX    TMP DP  RH WIND       PRES   REMARKS
OAKLAND*       PTSUNNY   64 N/A N/A NW5       30.30R
CUMBERLAND*    PTSUNNY   70  64  83 CALM      30.26R

$$

VAZ025>031-281400-
SHENANDOAH VALLEY

CITY           SKY/WX    TMP DP  RH WIND       PRES   REMARKS
WINCHESTER*    MOSUNNY   79  61  53 SW3       30.21R
FRONT ROYAL*   FAIR      73  66  78 CALM      30.20S
LURAY*         FAIR      75  70  83 S5        30.22S
NEW MARKET*    FAIR      72  66  80 W3        30.21S
STAUNTON*      SUNNY     72  65  79 CALM      30.26R
WAYNESBORO*    FAIR      70  65  83 CALM      30.25R

$$

WVZ021-048>050-054>055-281400-
EASTERN WEST VIRGINIA PANHANDLE

CITY           SKY/WX    TMP DP  RH WIND       PRES   REMARKS
MARTINSBURG    MOSUNNY   77  67  71 CALM      30.20S
PETERSBURG*    MOSUNNY   68  62  79 CALM      30.24S

$$

VAZ036>039-050-281400-
CENTRAL FOOTHILLS

CITY           SKY/WX    TMP DP  RH WIND       PRES   REMARKS
CHARLOTTESVILL SUNNY     75  66  73 CALM      30.21R
CULPEPER*      MOSUNNY   73  67  80 CALM      30.21R
ORANGE*        MOSUNNY   73  68  83 CALM      30.22R
GORDONSVILLE*  FAIR      72  67  83 CALM      30.20R
WARRENTON*     FAIR      76  69  79 CALM      30.20S

$$

VAZ055>057-281400-
NORTH AND CENTRAL PIEDMONT

CITY           SKY/WX    TMP DP  RH WIND       PRES   REMARKS
FREDERICKSBRG* MOSUNNY   75  69  82 CALM      30.19S
STAFFORD*      MOSUNNY   74  66  76 S3        30.24S

$$

NCZ024-NYZ072-PAZ021-071-VAZ022-071-281400-
OTHER REGIONAL OBSERVATIONS

CITY           SKY/WX    TMP DP  RH WIND       PRES   REMARKS
NEW YORK CITY  CLOUDY    73  63  70 SE3       30.20R
PHILADELPHIA   CLOUDY    74  69  85 S6        30.18R
PITTSBURGH     PTSUNNY   69  61  75 N9        30.25R
ROANOKE        PTSUNNY   73  64  73 SW3       30.26R
RICHMOND       CLOUDY    75  68  78 S10       30.20S
RALEIGH        PTSUNNY   72  68  87 W5        30.24S

$$

ANZ530>537-281400-
MARINE OBSERVATIONS

STATION/POSITION TIME  TEMP    WIND        PRES
                       AIR SEA DIR/SP/G
                 (UTC) (F)     (DEG/KT/KT) (MB)
THOMAS PT LIGHT  1300   70 69  180/  7/  8 1022.7R
BALT KEY BRIDGE  1200   72     220/  8/ 11 1021.4R
COVE POINT       1200   71     230/  7/  8 1023.0R
LEWISETTA        1200   73 75              1022.1R
SOLOMONS ISLAND  1200      72                N/A
PINEY POINT      1200          270/  3/  4   N/A

$$



USA.gov is the U.S. government's official web portal to all federal, state and local government web resources and services.